Preview of NWS' New Version of Forecast
This preview is not operational and should not be used for support decisions.

Regional Weather Roundup (RWR)

Issued by National Weather Service (NWS)

                            
000
ASUS46 KSEW 210320
RWRWA 

WASHINGTON REGIONAL WEATHER ROUNDUP
NATIONAL WEATHER SERVICE SEATTLE WA
800 PM PDT FRI SEP 20 2019

NOTE:"FAIR" INDICATES FEW OR NO CLOUDS BELOW 12,000 FEET WITH NO 
SIGNIFICANT WEATHER AND/OR OBSTRUCTIONS TO VISIBILITY.

WAZ507-509-555>559-210400-
SEATTLE, TACOMA, EVERETT, AND VICINITY
  
CITY           SKY/WX    TMP DP  RH WIND       PRES   REMARKS
EVERETT        PTCLDY    62  53  72 E3        30.13R                  
BOEING FIELD   PTCLDY    65  54  67 CALM      30.12R                  
RENTON         MOCLDY    63  55  75 CALM      30.11R                  
SEATAC AIRPORT MOCLDY    64  53  67 CALM      30.12S                  
JBLM-MCCHORD   MOCLDY    63  59  89 CALM      30.12R                  
PUYALLUP       CLOUDY    61  59  94 CALM      30.12S                  
BREMERTON      CLOUDY    61  56  83 CALM      30.12S                  
JBLM-FT LEWIS  CLOUDY    62  62  99 SE3       30.11R                  
TACOMA NARROWS CLOUDY    63  52  67 CALM      30.12R                  
$$
 
WAZ001-503-506-510-514-515-210400-
NORTH INTERIOR
  
CITY           SKY/WX    TMP DP  RH WIND       PRES   REMARKS
BELLINGHAM     PTCLDY    57  52  83 CALM      30.11R                  
FRIDAY HARBOR  CLEAR     54  50  86 CALM      30.12R                  
EASTSOUND      CLEAR     55  54  94 CALM      30.10R                  
PORT ANGELES   CLOUDY    59  55  87 CALM      30.13R                  
EDIZ HOOK      CLOUDY    59  56  91 NW7       30.12R                  
PORT TOWNSEND  FAIR      55  54  94 CALM      30.11R                  
NAS WHIDBEY    MOCLDY    59  51  75 E3        30.15R                  
ARLINGTON      PTCLDY    60  55  83 CALM      30.12R                  
BURLINGTON     CLEAR     57  54  88 CALM      30.11S                  
$$
 
WAZ020-022-039-040-504-511-512-210400-
SOUTHWEST INTERIOR
  
CITY           SKY/WX    TMP DP  RH WIND       PRES   REMARKS
SHELTON        CLEAR     62  56  80 W7        30.10R                  
OLYMPIA        PTCLDY    61  54  77 CALM      30.11S                  
CHEHALIS       MOCLDY    61  59  94 CALM      30.13R                  
KELSO          CLOUDY    65  57  75 CALM      30.13R                  
VANCOUVER      MOCLDY    65  54  67 CALM      30.12R                  
SCAPPOOSE, OR  CLOUDY    64  59  83 CALM      30.11S                  
PORTLAND, OR   MOCLDY    64  55  72 CALM      30.12S                  
$$
 
WAZ021-516-517-210400-
WASHINGTON COAST
  
CITY           SKY/WX    TMP DP  RH WIND       PRES   REMARKS
FORKS          PTCLDY    56  55  97 CALM      30.13R                  
HOQUIAM        MOCLDY    61  59  93 NW5       30.14R                  
ASTORIA, OR    CLOUDY    61  58  90 CALM      30.13S                  
$$
 
WAZ019-023-024-040-567>569-210400-
CASCADE MOUNTAINS AND COLUMBIA GORGE
  
CITY           SKY/WX    TMP DP  RH WIND       PRES   REMARKS
STAMPEDE PASS  PTCLDY    46  44  93 VRB3      30.14S                  
TROUTDALE, OR  MOCLDY    64  55  72 CALM      30.12S                  
HOOD RIVER, OR PTCLDY    63  48  59 CALM      30.09S                  
THE DALLES, OR PTCLDY    66  47  50 W14G20    30.04R                  
$$

WAZ026-027-041>044-520-521-210400-
EAST SLOPES
  
CITY           SKY/WX    TMP DP  RH WIND       PRES   REMARKS
OMAK           PTCLDY    59  42  53 N6        30.00R                  
WENATCHEE      CLEAR     64  42  44 W12       30.01R                  
ELLENSBURG     CLEAR     61  44  53 NW20G32   30.03R                  
YAKIMA         CLEAR     65  43  44 NW16G24   30.03R                  
SUNNYSIDE ARPT CLEAR     63  53  68 N6        30.01R                  
YAKIMA TC      FAIR      62  41  46 N6        30.03R                  
$$

WAZ028-034-035-210400-
COLUMBIA BASIN
  
CITY           SKY/WX    TMP DP  RH WIND       PRES   REMARKS
EPHRATA        MOCLDY    67  42  40 NW12      29.97R                  
MOSES LAKE     MOCLDY    69  49  48 S6        29.98R                  
PASCO          PTCLDY    67  48  50 SE6       30.00R                  
RICHLAND ARPT  PTCLDY    67  49  52 CALM      30.00                   
HERMISTON, OR  PTCLDY    63  48  58 S6        30.01R                  
$$

WAZ036>038-210400-
NORTHEAST WASHINGTON
  
CITY           SKY/WX    TMP DP  RH WIND       PRES   REMARKS
SPOKANE GEIGER PTCLDY    57  49  74 S10       30.01R                  
SPOKANE FELTS  CLOUDY    61  50  67 SW5       30.02R                  
FAIRCHILD AFB  MOCLDY    54  54 100 S8        30.01R                  
COEURDALENE,ID MOCLDY    56  50  80 S3        30.03R                  
DEER PARK      MOCLDY    56  51  84 CALM      30.02R                  
$$

WAZ029>033-210400-
SOUTHEAST WASHINGTON
  
CITY           SKY/WX    TMP DP  RH WIND       PRES   REMARKS
PULLMAN        CLOUDY    57  46  66 VRB3      30.06R                  
LEWISTON, ID   PTCLDY    61  47  59 S6        30.03R                  
WALLA WALLA    CLOUDY    65  45  48 SE9       30.03R                  
PENDLETON, OR  CLOUDY    64  47  53 S3        30.04R                  
$$